User: anonymous   Login
Location: Mount Kobau Star Party
(49.1167°N, 119.7333°W)
Time: 16:17:03
(UTC-08:00)
Language:

TSX-5 - Orbit

View from above orbital plane
View from above orbital plane
View from above satellite
View from above satellite

Ground track
Ground track

The orbit data is extracted from the following two-line orbital elements,

1 26374U 00030A   17052.80709806  .00002016  00000-0  18112-3 0  9993
2 26374  68.9304  62.1117 0647886  45.2554 319.9432 14.04557328839905
Epoch (UTC): 21 February 2017 19:22:13
Eccentricity: 0.0647886
inclination: 68.9304°
perigee height: 408 km
apogee height: 1348 km
right ascension of ascending node: 62.1117°
argument of perigee: 45.2554°
revolutions per day: 14.04557328
mean anomaly at epoch: 319.9432°
orbit number at epoch: 83990

The dashed part of the orbit path shows where the satellite is in the earth's shadow,  

DLR